COSMOS 1275 DEB, 12661

Orbit data source: Space-Track

COSMOS 1275 DEB, 12661 is space debris in LEO originally from a launch on Thu, 04 Jun 1981 UTC launched from the Plesetsk Missile And Space Complex (PKMTR). Debris objects in space refer to the collection of defunct objects orbiting the Earth. Examples of debris include non-operational satellites, rocket bodies, and fragments generated from explosions, collisions, or faulty payload assembly.

Loading next visibility...
Identifier
12661, 1981-053R
Orbit
LEO
Country
Flag of CISCIS
Related business
Manufacturer
Unknown
Mission
Spacecraft
Bus & Motor
Unknown
Mass
Unknown
Launch date (UTC)
1981-06-04 (44 years ago)
Launch vehicle
Unknown
Launch site
Plesetsk Missile And Space Complex (PKMTR)
Object type
Payload
Rocket body
Debris
Shape & HBR
Unknown shape, 0.1 m
Radar Cross Section
Small (<0.1 m²)

Expand to show TLE details & history
Last TLE update: 6 hours ago

TLE from 6 hours ago
0 COSMOS 1275 DEB
1 12661U 81053R   25291.22743051  .00001558  00000-0  16188-2 0  9991
2 12661  82.7967  87.4633 0120246 160.6269  17.8799 13.71862011196820
Epoch: 2025-10-18T05:27Z
TLE epoch observation values (Epoch: 2025-10-18T05:27:29.996Z)
Latitude
0.94628°
Longitude
158.50786°
Altitude
911.4 km
Speed
7.438 km/s
True Right ascension
17h 49m 22s
True Declination
0° 56' 27"
Sunlit
Object was in daylight at epoch
Visualization orbit readout
Latitude
Unknown
Longitude
Unknown
Altitude
Unknown
Speed
Unknown
Apparent Right ascension
Unknown
Apparent Declination
Unknown
Sunlit
N/A
Visualization observer readout
Local Sidereal Time
05:55:49
Azimuth
Unknown
Elevation
Unknown
Doppler factor
Unknown
Orbital elements
Apogee altitude
1,078.651 km
Perigee altitude
901.452 km
Semi-major axis
7,368.189 km
Eccentricity
0.01202
Inclination
82.7967°
RAAN
87.4633°
Arg. of periapsis
160.6269°
True anomaly
18.30908°
Mean anomaly
17.8799°
Eccentric anomaly
18.09387°
Mean motion
3.43164 °/min
Orbital period
104.91 mins
BSTAR
0.0016188
Loading maneuver chart data...
Computing Atmospheric mass density...

Documentation

Showing up to 5 results
|